Weather in Knoxville

United States     35°57′38″N   83°55′15″W
temp.,
°C
wind,
m/s
gust,
m/s
humid.,
%
clouds,
%
prec.,
mm/h
press.,
hPa
HPBL,
m
26 may, thu
thu2623:00+21ssw2473100 0.0 1018133
02:00+20se278392 0.3 1017298
05:00+18ese128886 0.0 101760
08:00+19s1195100 1.4 1017131
11:00+19e1497100 1.8 1016182
14:00+19ese2896100 3.1 1014405
17:00+19sw2799100 21.2 1013500
20:00+16wsw21198100 47.3 1012601
27 may, fri
fri2723:00+15wsw2896100 0.0 1014294
02:00+14wsw1398100 0.0 1012108
05:00+13e119823 0.0 101119
08:00+15ssw129389 0.1 1012140
11:00+18sw498214 1.1 1011970
14:00+21sw6107180 2.4 10101725
17:00+20w596417 1.4 10101149
20:00+18w377616 1.8 1011464
28 may, sat
sat2823:00+14sw23873 0.0 101366
02:00+13wsw25955 0.0 1013141
05:00+13sw239392 0.0 1013126
08:00+15wsw1286100 0.0 1015210
11:00+17ssw127744 0.0 1015551
14:00+21s016192 0.1 10141254
17:00+24sse12554 0.0 10131212
20:00+20se23770 0.0 101364
29 may, sun
sun2923:00+16ene22880 0.0 101531
02:00+15ne11910 0.0 101528
05:00+14ne11940 0.0 101616
08:00+16ene12855 0.0 1017137
11:00+23sse13617 0.0 1017576
14:00+28sw35425 0.0 10161643
17:00+28w35435 0.0 10151359
20:00+24sw11710 0.0 101611
30 may, mon
mon3023:00+20sse11780 0.0 101811
02:00+19ne11840 0.0 101813
05:00+17ene11900 0.0 101911
08:00+19ene00830 0.0 102190
11:00+26e12570 0.0 1022566
14:00+31sw13420 0.0 10211660
17:00+31wnw12390 0.0 10191991
20:00+26e11670 0.0 101913